Flag for New Zealand Weather past 2 weeks in Christchurch, New Zealand

Now
68 °F

Mild.


Feels Like: 68 °F
Forecast: 61 / 80 °F
Wind: 24 mph from East

Location: Christchurch Airport

Current Time: Dec 29, 2014 at 4:18:50 PM

Latest Report: Dec 29, 2014 at 3:30 PM


Visibility: N/A

Pressure: 30.21 "Hg

Humidity: 56%

Dew point: 52 °F

Location of ChristchurchLocation

Historic Weather in Christchurch — Graph

°F

Christchurch temperature yesterday

Maximum temperature yesterday: 66 °F (at 12:00 AM)
Minimum temperature yesterday: 59 °F (at 6:00 AM)
Average temperature yesterday: 63 °F

Past Weeks' High & Low Weather Summary

 TemperatureHumidityPressure
High84 °F (Dec 27, 1:30 PM)100% (Dec 15, 6:30 AM)30.33 "Hg (Dec 15, 6:30 AM)
Low41 °F (Dec 15, 5:30 AM)26% (Dec 27, 2:00 PM)29.56 "Hg (Dec 21, 2:30 AM)
Average62 °F76%30.00 "Hg
* Reported Dec 14 3:00 PM — Dec 29 3:00 PM, Christchurch, Weather by CustomWeather, © 2014

Note: Actual official high and low records may vary slightly from our data, if they occured in-between our weather recording intervals... More about our weather records

Advertising

Christchurch weather history for previous 24 hours

 ConditionsComfort  
Time TempWeatherWind HumidityBarometerVisibility
3:00 PM
Dec 29
68 °FMild.22 mph56%30.21 "HgN/A
2:30 PM70 °FMild.23 mph53%30.21 "HgN/A
2:00 PM70 °FMild.22 mph46%30.24 "HgN/A
1:30 PM70 °FMild.21 mph50%30.24 "HgN/A
1:00 PM68 °FMild.20 mph53%30.24 "HgN/A
12:30 PM70 °FMild.20 mph53%30.27 "HgN/A
12:00 PM68 °FMild.17 mph56%30.27 "HgN/A
11:30 AM68 °FMild.15 mph56%30.27 "HgN/A
11:00 AM66 °FMild.16 mph60%30.30 "HgN/A
10:30 AM66 °FMild.14 mph60%30.30 "HgN/A
10:00 AM66 °FMild.14 mph60%30.30 "HgN/A
9:30 AM64 °FPassing clouds.14 mph64%30.30 "HgN/A
9:00 AM63 °FPartly sunny.14 mph68%30.33 "HgN/A
8:30 AM63 °FMild.14 mph68%30.33 "HgN/A
8:00 AM61 °FCool.12 mph72%30.33 "HgN/A
7:30 AM61 °FCool.10 mph72%30.30 "HgN/A
7:00 AM57 °FPassing clouds.8 mph77%30.30 "HgN/A
6:30 AM57 °FPartly sunny.8 mph77%30.30 "HgN/A
6:00 AM54 °FPassing clouds.6 mph82%30.30 "HgN/A
5:30 AM57 °FPassing clouds.8 mph77%30.30 "HgN/A
5:00 AM59 °FOvercast.7 mph72%30.30 "HgN/A
4:30 AM59 °FOvercast.7 mph72%30.30 "HgN/A
4:00 AM57 °FOvercast.7 mph72%30.30 "HgN/A
3:30 AM59 °FOvercast.6 mph68%30.30 "HgN/A
3:00 AM59 °FOvercast.7 mph68%30.30 "HgN/A
2:30 AM59 °FOvercast.7 mph68%30.33 "HgN/A
2:00 AM59 °FOvercast.8 mph68%30.33 "HgN/A
1:30 AM59 °FMostly cloudy.6 mph68%30.33 "HgN/A
1:00 AM59 °FOvercast.6 mph72%30.33 "HgN/A
12:30 AM59 °FOvercast.8 mph77%30.33 "HgN/A
12:00 AM59 °FOvercast.5 mph77%30.33 "HgN/A
11:30 PM
Dec 28
61 °FOvercast.5 mph77%30.33 "HgN/A
11:00 PM61 °FOvercast.5 mph77%30.33 "HgN/A
10:30 PM61 °FOvercast.6 mph77%30.33 "HgN/A
10:00 PM61 °FOvercast.6 mph77%30.33 "HgN/A
9:30 PM61 °FPassing clouds.6 mph77%30.30 "HgN/A
9:00 PM61 °FPartly sunny.5 mph77%30.30 "HgN/A
8:30 PM63 °FMostly cloudy.2 mph73%30.27 "HgN/A
8:00 PM63 °FOvercast.5 mph73%30.27 "HgN/A
7:30 PM63 °FOvercast.5 mph73%30.27 "HgN/A
7:00 PM63 °FOvercast.6 mph73%30.24 "HgN/A
6:30 PM63 °FOvercast.8 mph73%30.24 "HgN/A
6:00 PM64 °FOvercast.9 mph68%30.24 "HgN/A
5:30 PM64 °FMostly cloudy.13 mph68%30.21 "HgN/A
5:00 PM66 °FMore clouds than sun.17 mph68%30.21 "HgN/A
4:30 PM66 °FMostly cloudy.17 mph68%30.21 "HgN/A
4:00 PM64 °FMostly cloudy.18 mph73%30.21 "HgN/A
Weather by CustomWeather, © 2014

See weather overviewHow to use our weather pages